CEB495 RPUT-RPLL

Flight info

Callsign CEB495
Flight time 0h 37m
Altitude 22000
Route CUY2R CUY W1 CAB CAB1D
Aircraft B737/M-SDE2E3FGHIRWXY/LB1

Departure

Time 2026-05-06 18:44
Airport Tuguegarao Airport (RPUT)

Arrival

Time 2026-05-06 19:21
Airport Ninoy Aquino International Airport (RPLL)
Time Latitude Longitude Altitude Speed Heading
2026-05-06 18:37 17.64289 121.73471 83 ft 0 kts 83°
2026-05-06 18:38 17.64289 121.73466 83 ft 2 kts 83°
2026-05-06 18:38 17.64286 121.73450 83 ft 2 kts 82°
2026-05-06 18:38 17.64285 121.73435 83 ft 2 kts 83°
2026-05-06 18:38 17.64283 121.73420 83 ft 1 kts 82°
2026-05-06 18:39 17.64282 121.73414 83 ft 0 kts 83°
2026-05-06 18:40 17.64282 121.73416 83 ft 1 kts 87°
2026-05-06 18:41 17.64276 121.73424 83 ft 2 kts 150°
2026-05-06 18:41 17.64247 121.73411 83 ft 8 kts 215°
2026-05-06 18:41 17.64183 121.73360 83 ft 14 kts 216°
2026-05-06 18:41 17.64083 121.73350 83 ft 15 kts 172°
2026-05-06 18:42 17.63974 121.73367 84 ft 16 kts 172°
2026-05-06 18:42 17.63856 121.73384 85 ft 17 kts 172°
2026-05-06 18:42 17.63731 121.73402 87 ft 19 kts 173°
2026-05-06 18:42 17.63596 121.73421 87 ft 19 kts 172°
2026-05-06 18:43 17.63510 121.73424 87 ft 3 kts 147°
2026-05-06 18:43 17.63515 121.73431 87 ft 1 kts 14°
2026-05-06 18:43 17.63518 121.73431 87 ft 0 kts 358°
2026-05-06 18:43 17.63542 121.73428 87 ft 12 kts 354°
2026-05-06 18:44 17.63897 121.73377 85 ft 99 kts 352°
2026-05-06 18:44 17.64862 121.73238 105 ft 178 kts 353°
2026-05-06 18:44 17.66092 121.73049 1064 ft 179 kts 353°
2026-05-06 18:44 17.67359 121.72872 1791 ft 197 kts 354°
2026-05-06 18:45 17.68789 121.72629 2271 ft 226 kts 344°
2026-05-06 18:45 17.70147 121.71693 2963 ft 248 kts 310°
2026-05-06 18:45 17.70869 121.70035 3765 ft 266 kts 278°
2026-05-06 18:45 17.70631 121.68137 4800 ft 273 kts 246°
2026-05-06 18:46 17.69421 121.66621 5785 ft 279 kts 212°
2026-05-06 18:46 17.67626 121.65884 6749 ft 283 kts 196°
2026-05-06 18:46 17.65769 121.65197 7681 ft 291 kts 201°
2026-05-06 18:46 17.63877 121.64378 8646 ft 296 kts 204°
2026-05-06 18:47 17.61998 121.63506 9596 ft 301 kts 206°
2026-05-06 18:47 17.60103 121.62598 10550 ft 305 kts 207°
2026-05-06 18:47 17.58206 121.61684 11480 ft 308 kts 208°
2026-05-06 18:47 17.56149 121.60840 11919 ft 332 kts 199°
2026-05-06 18:48 17.53794 121.60352 12386 ft 354 kts 187°
2026-05-06 18:48 17.51301 121.60339 13132 ft 364 kts 175°
2026-05-06 18:48 17.48793 121.60771 13960 ft 370 kts 168°
2026-05-06 18:48 17.46282 121.61346 14811 ft 374 kts 167°
2026-05-06 18:49 17.43762 121.61906 15653 ft 378 kts 170°
2026-05-06 18:49 17.41154 121.62232 16481 ft 382 kts 175°
2026-05-06 18:49 17.38502 121.62431 17274 ft 386 kts 175°
2026-05-06 18:49 17.35826 121.62616 18068 ft 389 kts 175°
2026-05-06 18:50 17.33110 121.62818 18851 ft 393 kts 174°
2026-05-06 18:50 17.30399 121.63030 19605 ft 396 kts 174°
2026-05-06 18:50 17.27652 121.63248 20354 ft 399 kts 174°
2026-05-06 18:50 17.24897 121.63525 21077 ft 401 kts 169°
2026-05-06 18:51 17.22195 121.64145 21700 ft 403 kts 161°
2026-05-06 18:51 17.19526 121.65050 21834 ft 411 kts 158°
2026-05-06 18:51 17.16792 121.66063 21855 ft 421 kts 158°
2026-05-06 18:51 17.14009 121.67105 21857 ft 432 kts 158°
2026-05-06 18:52 17.11165 121.68162 21857 ft 442 kts 158°
2026-05-06 18:52 17.08250 121.69241 21856 ft 452 kts 158°
2026-05-06 18:52 17.05234 121.70355 21855 ft 461 kts 159°
2026-05-06 18:52 17.02179 121.71362 21857 ft 470 kts 165°
2026-05-06 18:53 16.98938 121.71990 21859 ft 479 kts 172°
2026-05-06 18:53 16.95586 121.72233 21858 ft 486 kts 179°
2026-05-06 18:53 16.92217 121.72107 21857 ft 488 kts 185°
2026-05-06 18:53 16.88902 121.71596 21854 ft 488 kts 192°
2026-05-06 18:54 16.85617 121.70634 21853 ft 487 kts 199°
2026-05-06 18:54 16.82478 121.69365 21851 ft 487 kts 204°
2026-05-06 18:54 16.79391 121.67902 21851 ft 487 kts 206°
2026-05-06 18:54 16.76363 121.66377 21857 ft 486 kts 207°
2026-05-06 18:55 16.73318 121.64831 21867 ft 486 kts 207°
2026-05-06 18:55 16.70288 121.63303 21877 ft 487 kts 206°
2026-05-06 18:55 16.67253 121.61777 21888 ft 487 kts 206°
2026-05-06 18:55 16.64227 121.60259 21898 ft 487 kts 206°
2026-05-06 18:56 16.61196 121.58738 21904 ft 487 kts 206°
2026-05-06 18:56 16.58142 121.57206 21905 ft 487 kts 206°
2026-05-06 18:56 16.55085 121.55673 21905 ft 487 kts 206°
2026-05-06 18:56 16.52029 121.54140 21906 ft 487 kts 206°
2026-05-06 18:57 16.48996 121.52620 21906 ft 487 kts 206°
2026-05-06 18:57 16.45962 121.51100 21906 ft 487 kts 206°
2026-05-06 18:57 16.42899 121.49567 21906 ft 487 kts 206°
2026-05-06 18:57 16.39897 121.48063 21906 ft 487 kts 206°
2026-05-06 18:58 16.36822 121.46524 21907 ft 487 kts 206°
2026-05-06 18:58 16.33771 121.44997 21907 ft 487 kts 206°
2026-05-06 18:58 16.30735 121.43480 21907 ft 487 kts 206°
2026-05-06 18:58 16.27700 121.41962 21907 ft 487 kts 206°
2026-05-06 18:59 16.24651 121.40438 21907 ft 487 kts 206°
2026-05-06 18:59 16.21597 121.38913 21908 ft 487 kts 206°
2026-05-06 18:59 16.18555 121.37393 21908 ft 487 kts 206°
2026-05-06 18:59 16.15537 121.35886 21908 ft 487 kts 206°
2026-05-06 19:00 16.12468 121.34355 21908 ft 487 kts 206°
2026-05-06 19:00 16.09452 121.32849 21907 ft 487 kts 206°
2026-05-06 19:00 16.06389 121.31322 21908 ft 487 kts 206°
2026-05-06 19:00 16.03352 121.29807 21908 ft 487 kts 206°
2026-05-06 19:01 16.00305 121.28288 21908 ft 487 kts 206°
2026-05-06 19:01 15.97273 121.26778 21908 ft 487 kts 206°
2026-05-06 19:01 15.94225 121.25260 21908 ft 487 kts 206°
2026-05-06 19:01 15.91163 121.23735 21909 ft 487 kts 206°
2026-05-06 19:02 15.88173 121.22247 21905 ft 487 kts 206°
2026-05-06 19:02 15.85142 121.20739 21903 ft 487 kts 206°
2026-05-06 19:02 15.82097 121.19224 21903 ft 487 kts 206°
2026-05-06 19:02 15.79059 121.17714 21903 ft 487 kts 206°
2026-05-06 19:03 15.75992 121.16190 21904 ft 487 kts 206°
2026-05-06 19:03 15.72951 121.14678 21904 ft 487 kts 206°
2026-05-06 19:03 15.69908 121.13167 21904 ft 486 kts 206°
2026-05-06 19:03 15.66853 121.11649 21904 ft 486 kts 206°
2026-05-06 19:04 15.63848 121.10159 21904 ft 486 kts 206°
2026-05-06 19:04 15.60800 121.08646 21905 ft 486 kts 206°
2026-05-06 19:04 15.57755 121.07135 21905 ft 486 kts 206°
2026-05-06 19:04 15.54724 121.05632 21905 ft 485 kts 206°
2026-05-06 19:05 15.51656 121.04112 21905 ft 485 kts 206°
2026-05-06 19:05 15.48621 121.02616 21906 ft 485 kts 204°
2026-05-06 19:05 15.45493 121.01301 21686 ft 489 kts 201°
2026-05-06 19:05 15.42323 121.00074 21173 ft 484 kts 200°
2026-05-06 19:06 15.39251 120.98891 20628 ft 469 kts 201°
2026-05-06 19:06 15.36241 120.97718 20040 ft 457 kts 201°
2026-05-06 19:06 15.33299 120.96564 19466 ft 450 kts 201°
2026-05-06 19:06 15.30394 120.95422 18894 ft 448 kts 201°
2026-05-06 19:07 15.27527 120.94296 18327 ft 445 kts 201°
2026-05-06 19:07 15.24648 120.93166 17753 ft 442 kts 202°
2026-05-06 19:07 15.21797 120.92048 17179 ft 437 kts 202°
2026-05-06 19:07 15.18975 120.90942 16605 ft 433 kts 202°
2026-05-06 19:08 15.16174 120.89844 16030 ft 429 kts 202°
2026-05-06 19:08 15.13433 120.88769 15462 ft 424 kts 202°
2026-05-06 19:08 15.10666 120.87685 14883 ft 420 kts 202°
2026-05-06 19:08 15.07989 120.86636 14317 ft 416 kts 202°
2026-05-06 19:09 15.05298 120.85583 13779 ft 411 kts 202°
2026-05-06 19:09 15.02624 120.84536 13288 ft 407 kts 202°
2026-05-06 19:09 15.00033 120.83521 12896 ft 397 kts 202°
2026-05-06 19:09 14.97502 120.82533 12493 ft 383 kts 203°
2026-05-06 19:10 14.95060 120.81577 12091 ft 371 kts 203°
2026-05-06 19:10 14.92677 120.80647 11687 ft 360 kts 202°
2026-05-06 19:10 14.90393 120.79757 11348 ft 348 kts 202°
2026-05-06 19:10 14.88156 120.78885 11044 ft 337 kts 202°
2026-05-06 19:11 14.85992 120.78040 10738 ft 327 kts 202°
2026-05-06 19:11 14.83912 120.77229 10436 ft 319 kts 202°
2026-05-06 19:11 14.81861 120.76429 10132 ft 312 kts 202°
2026-05-06 19:11 14.79854 120.75646 9828 ft 305 kts 202°
2026-05-06 19:12 14.77890 120.74880 9524 ft 300 kts 202°
2026-05-06 19:12 14.75964 120.74129 9222 ft 295 kts 202°
2026-05-06 19:12 14.74059 120.73387 8919 ft 291 kts 202°
2026-05-06 19:12 14.72182 120.72656 8619 ft 290 kts 202°
2026-05-06 19:13 14.70304 120.71923 8320 ft 291 kts 201°
2026-05-06 19:13 14.68406 120.71184 8018 ft 290 kts 202°
2026-05-06 19:13 14.66547 120.70464 7720 ft 288 kts 200°
2026-05-06 19:13 14.64613 120.69940 7419 ft 287 kts 190°
2026-05-06 19:14 14.62618 120.69769 7120 ft 286 kts 179°
2026-05-06 19:14 14.60662 120.69951 6822 ft 283 kts 169°
2026-05-06 19:14 14.58797 120.70461 6525 ft 279 kts 159°
2026-05-06 19:14 14.57041 120.71271 6226 ft 275 kts 152°
2026-05-06 19:15 14.55372 120.72207 5926 ft 272 kts 149°
2026-05-06 19:15 14.53737 120.73168 5625 ft 269 kts 149°
2026-05-06 19:15 14.52128 120.74118 5327 ft 267 kts 149°
2026-05-06 19:15 14.50515 120.75070 5024 ft 265 kts 149°
2026-05-06 19:16 14.48947 120.76000 4727 ft 263 kts 149°
2026-05-06 19:16 14.47368 120.76937 4428 ft 260 kts 149°
2026-05-06 19:16 14.45802 120.77866 4127 ft 258 kts 149°
2026-05-06 19:16 14.44287 120.78825 3828 ft 256 kts 141°
2026-05-06 19:17 14.43040 120.80111 3532 ft 252 kts 125°
2026-05-06 19:17 14.42205 120.81684 3237 ft 248 kts 109°
2026-05-06 19:17 14.41834 120.83410 2943 ft 245 kts 94°
2026-05-06 19:17 14.41908 120.85147 2711 ft 242 kts 83°
2026-05-06 19:18 14.42254 120.86816 2591 ft 237 kts 65°
2026-05-06 19:18 14.43095 120.88269 2502 ft 232 kts 56°
2026-05-06 19:18 14.43948 120.89589 2353 ft 217 kts 58°
2026-05-06 19:18 14.44720 120.90907 2109 ft 209 kts 60°
2026-05-06 19:19 14.45426 120.92179 1854 ft 198 kts 61°
2026-05-06 19:19 14.46098 120.93394 1588 ft 194 kts 60°
2026-05-06 19:19 14.46771 120.94600 1325 ft 193 kts 61°
2026-05-06 19:19 14.47420 120.95767 1069 ft 183 kts 60°
2026-05-06 19:20 14.48020 120.96846 835 ft 163 kts 60°
2026-05-06 19:20 14.48549 120.97794 623 ft 142 kts 61°
2026-05-06 19:20 14.49043 120.98676 437 ft 144 kts 61°
2026-05-06 19:20 14.49548 120.99582 277 ft 148 kts 61°
2026-05-06 19:21 14.50050 121.00490 89 ft 144 kts 62°
2026-05-06 19:21 14.50458 121.01225 83 ft 78 kts 60°
2026-05-06 19:21 14.50632 121.01537 83 ft 27 kts 60°
2026-05-06 19:21 14.50735 121.01686 83 ft 25 kts 48°
2026-05-06 19:22 14.50859 121.01792 83 ft 19 kts 36°
2026-05-06 19:22 14.50960 121.01872 83 ft 15 kts 37°
2026-05-06 19:22 14.51038 121.01910 83 ft 11 kts 339°
2026-05-06 19:22 14.51097 121.01856 83 ft 12 kts 316°